sat.trackr.live / text

‹ back to catalog

STARLINK-34732

NORAD 64955 · 2025-158Z

PAYLOAD ACTIVE UNKNOWN

§ Identity

Operator
Country
US
Launch date
2025-07-27
Launch site
AFWTR
Launch vehicle
Mass (kg)
RCS (m²)

Purposes: comms

External: N2YO · Heavens-Above · Gunter

§ Orbital elements

Epoch: 2026-09-20T13:51:56.649600Z

Period
93.91 min
Inclination
97.2821°
Eccentricity
0.0001872
Mean motion
15.33448069 rev/d
Perigee alt
464.3 km
Apogee alt
466.8 km
Semi-major
6,843.7 km
B*
3.3467e-4
RAAN
121.8188°
Arg perigee
87.5860°
Mean anomaly
272.5597°
Rev number
6,471

§ Raw data

STARLINK-347321 64955U 25158Z   26263.57773900  .00010746  00000+0  33467-3 0  99902 64955  97.2821 121.8188 0001872  87.5860 272.5597 15.33448069 64719

JSON: /api/v1/satellites/64955 · /tle

For live sub-satellite position, see the globe view (requires WebGL).

§ Visibility from observer

Set your observer location to see the next 7 days of passes ≥ 10°. The values pass through the URL so the page stays shareable.

No JS? Fill the form by hand. The geolocation button needs JavaScript.